Terug naar catalogus

STARLINK-1608

ActiefCommunicatieVLEO
NORAD 46146·PAYLOAD·🇺🇸 United States

Gelanceerd Aug 18, 2020 vanaf Cape Canaveral Space Force Station

Loading…

Volgende Passages (komende 24 uur)

TLE

VersSource: CelesTrak SupGP

Epoch: Sep 14, 2026, 20:09 UTC

1 46146C 20057AF  26257.84006944  .00007134  00000+0  14563-3 0  2575
2 46146  53.1520 141.9468 0000845  83.9566 272.9822 15.45592943    16

Volg STARLINK-1608 in realtime met AllMySat

Download on the App Store